• în România
  • Lista ţărilor
  • Pe 7 zile
  • Temperatura apei
  • Hartă satelitară
  • Meteo pe hartă
  • Widget-uri
  • user-avatar
    Intrare

    Meteo pe oră la Graz

    Astăzi, 30 Martie, Joi

    Timp Temperatura Precipitaţii Vânt Presiune Umiditate
    00:00 +9°C° 0 mm 2 m/s 730 mmHg 88%
    01:00 +9°C° 0 mm 2 m/s 730 mmHg 90%
    02:00 +8°C° 0 mm 2 m/s 730 mmHg 91%
    03:00 +8°C° 0 mm 2 m/s 730 mmHg 91%
    04:00 +8°C° 0 mm 2 m/s 730 mmHg 92%
    05:00 +9°C° 0 mm 1 m/s 730 mmHg 91%
    06:00 +10°C° 0 mm 1 m/s 731 mmHg 89%
    07:00 +11°C° 0 mm 1 m/s 731 mmHg 87%
    08:00 +13°C° 0 mm 1 m/s 731 mmHg 79%
    09:00 +15°C° 0 mm 1 m/s 731 mmHg 70%
    10:00 +16°C° 0 mm 0 m/s 731 mmHg 62%
    11:00 +19°C° 0,1 mm 1 m/s 731 mmHg 60%
    12:00 +19°C° 0,1 mm 1 m/s 731 mmHg 58%
    13:00 +20°C° 0,1 mm 1 m/s 731 mmHg 56%
    14:00 +19°C° 0,2 mm 1 m/s 731 mmHg 58%
    15:00 +19°C° 0,2 mm 1 m/s 731 mmHg 60%
    16:00 +19°C° 0,2 mm 1 m/s 730 mmHg 62%
    17:00 +16°C° 0,2 mm 1 m/s 730 mmHg 71%
    18:00 +14°C° 0,2 mm 1 m/s 730 mmHg 81%
    19:00 +11°C° 0,2 mm 1 m/s 730 mmHg 90%
    20:00 +11°C° 0 mm 1 m/s 730 mmHg 91%
    21:00 +11°C° 0 mm 1 m/s 730 mmHg 92%
    22:00 +9°C° 0 mm 0 m/s 731 mmHg 93%
    23:00 +9°C° 0 mm 0 m/s 731 mmHg 94%

    Mâine, 31 Martie, Vineri

    Timp Temperatura Precipitaţii Vânt Presiune Umiditate
    00:00 +9°C° 0 mm 0 m/s 731 mmHg 94%
    01:00 +9°C° 0 mm 0 m/s 731 mmHg 95%
    02:00 +9°C° 0 mm 0 m/s 730 mmHg 95%
    03:00 +9°C° 0 mm 0 m/s 730 mmHg 96%
    04:00 +8°C° 0 mm 0 m/s 730 mmHg 96%
    05:00 +9°C° 0 mm 0 m/s 730 mmHg 95%
    06:00 +11°C° 0 mm 1 m/s 730 mmHg 94%
    07:00 +12°C° 0 mm 1 m/s 730 mmHg 92%
    08:00 +13°C° 0 mm 1 m/s 730 mmHg 86%
    09:00 +15°C° 0 mm 1 m/s 729 mmHg 79%
    10:00 +16°C° 0 mm 2 m/s 729 mmHg 72%
    11:00 +17°C° 0 mm 2 m/s 729 mmHg 70%
    12:00 +17°C° 0 mm 2 m/s 728 mmHg 68%
    13:00 +18°C° 0 mm 2 m/s 728 mmHg 65%
    14:00 +18°C° 0 mm 2 m/s 727 mmHg 66%
    15:00 +17°C° 0 mm 2 m/s 727 mmHg 67%
    16:00 +17°C° 0 mm 2 m/s 726 mmHg 68%
    17:00 +16°C° 0 mm 2 m/s 726 mmHg 75%
    18:00 +14°C° 0 mm 2 m/s 726 mmHg 82%
    19:00 +12°C° 0 mm 2 m/s 726 mmHg 89%
    20:00 +12°C° 0 mm 1 m/s 726 mmHg 91%
    21:00 +12°C° 0 mm 1 m/s 726 mmHg 92%
    22:00 +11°C° 0 mm 1 m/s 726 mmHg 94%
    23:00 +11°C° 0 mm 1 m/s 725 mmHg 94%

    Poimâine, 1 Aprilie, Sâmbătă

    Timp Temperatura Precipitaţii Vânt Presiune Umiditate
    00:00 +10°C° 0 mm 1 m/s 725 mmHg 94%
    01:00 +10°C° 0 mm 1 m/s 725 mmHg 95%
    02:00 +10°C° 0 mm 1 m/s 724 mmHg 95%
    03:00 +9°C° 0 mm 1 m/s 724 mmHg 96%
    04:00 +9°C° 0 mm 1 m/s 724 mmHg 96%
    05:00 +10°C° 0 mm 1 m/s 724 mmHg 95%
    06:00 +10°C° 0 mm 1 m/s 724 mmHg 93%
    07:00 +11°C° 0 mm 1 m/s 724 mmHg 92%
    08:00 +13°C° 0 mm 1 m/s 724 mmHg 83%
    09:00 +14°C° 0 mm 2 m/s 724 mmHg 75%
    10:00 +16°C° 0 mm 2 m/s 724 mmHg 66%
    11:00 +17°C° 0 mm 2 m/s 724 mmHg 61%
    12:00 +18°C° 0 mm 3 m/s 724 mmHg 56%
    13:00 +19°C° 0 mm 3 m/s 723 mmHg 51%
    14:00 +19°C° 0 mm 3 m/s 723 mmHg 51%
    15:00 +19°C° 0 mm 3 m/s 723 mmHg 50%
    16:00 +19°C° 0 mm 3 m/s 722 mmHg 50%
    17:00 +17°C° 0 mm 3 m/s 722 mmHg 59%
    18:00 +15°C° 0 mm 2 m/s 722 mmHg 68%
    19:00 +12°C° 0 mm 2 m/s 722 mmHg 77%
    20:00 +10°C° 0 mm 2 m/s 723 mmHg 80%
    21:00 +9°C° 0 mm 2 m/s 723 mmHg 82%
    22:00 +9°C° 0 mm 1 m/s 723 mmHg 84%
    23:00 +9°C° 0 mm 1 m/s 723 mmHg 85%

    2 Aprilie, Duminică

    Timp Temperatura Precipitaţii Vânt Presiune Umiditate
    00:00 +8°C° 0 mm 1 m/s 723 mmHg 86%
    01:00 +8°C° 0 mm 1 m/s 724 mmHg 88%
    02:00 +7°C° 0 mm 1 m/s 724 mmHg 88%
    03:00 +7°C° 0 mm 1 m/s 724 mmHg 88%
    04:00 +7°C° 0 mm 1 m/s 724 mmHg 88%
    05:00 +8°C° 0 mm 1 m/s 724 mmHg 83%
    06:00 +9°C° 0 mm 1 m/s 725 mmHg 78%
    07:00 +10°C° 0 mm 1 m/s 725 mmHg 73%
    08:00 +13°C° 0 mm 1 m/s 726 mmHg 63%
    09:00 +15°C° 0 mm 1 m/s 726 mmHg 54%
    10:00 +19°C° 0 mm 1 m/s 727 mmHg 44%
    11:00 +20°C° 0 mm 1 m/s 727 mmHg 42%
    12:00 +21°C° 0 mm 1 m/s 727 mmHg 39%
    13:00 +21°C° 0 mm 1 m/s 727 mmHg 37%
    14:00 +21°C° 0 mm 1 m/s 726 mmHg 39%
    15:00 +21°C° 0 mm 1 m/s 726 mmHg 41%
    16:00 +21°C° 0 mm 1 m/s 726 mmHg 43%
    17:00 +16°C° 0 mm 1 m/s 726 mmHg 57%
    18:00 +13°C° 0 mm 1 m/s 726 mmHg 70%
    19:00 +10°C° 0 mm 1 m/s 726 mmHg 83%
    20:00 +9°C° 0 mm 0 m/s 726 mmHg 85%
    21:00 +8°C° 0 mm 0 m/s 726 mmHg 87%
    22:00 +8°C° 0 mm 0 m/s 727 mmHg 89%
    23:00 +9°C° 0 mm 1 m/s 727 mmHg 88%

    3 Aprilie, Luni

    Timp Temperatura Precipitaţii Vânt Presiune Umiditate
    00:00 +9°C° 0 mm 1 m/s 727 mmHg 87%
    01:00 +10°C° 0 mm 1 m/s 727 mmHg 86%
    02:00 +10°C° 0 mm 1 m/s 727 mmHg 87%
    03:00 +9°C° 0 mm 1 m/s 727 mmHg 88%
    04:00 +8°C° 0 mm 2 m/s 727 mmHg 89%
    05:00 +9°C° 0 mm 2 m/s 727 mmHg 88%
    06:00 +10°C° 0 mm 2 m/s 728 mmHg 87%
    07:00 +10°C° 0 mm 2 m/s 728 mmHg 86%
    08:00 +13°C° 0,1 mm 2 m/s 728 mmHg 78%
    09:00 +15°C° 0,1 mm 2 m/s 729 mmHg 70%
    10:00 +17°C° 0,1 mm 2 m/s 729 mmHg 62%
    11:00 +18°C° 0,6 mm 2 m/s 729 mmHg 62%
    12:00 +18°C° 0,6 mm 2 m/s 729 mmHg 62%
    13:00 +18°C° 0,6 mm 2 m/s 729 mmHg 61%
    14:00 +18°C° 0,6 mm 2 m/s 728 mmHg 63%
    15:00 +18°C° 0,6 mm 2 m/s 728 mmHg 65%
    16:00 +17°C° 0,6 mm 2 m/s 728 mmHg 67%
    17:00 +16°C° 0,3 mm 2 m/s 728 mmHg 74%
    18:00 +14°C° 0,3 mm 2 m/s 728 mmHg 81%
    19:00 +12°C° 0,3 mm 2 m/s 728 mmHg 89%
    20:00 +10°C° 0,1 mm 2 m/s 728 mmHg 90%
    21:00 +10°C° 0,1 mm 2 m/s 729 mmHg 91%
    22:00 +9°C° 0,1 mm 2 m/s 729 mmHg 92%
    23:00 +9°C° 0 mm 2 m/s 729 mmHg 92%

    4 Aprilie, Marţi

    Timp Temperatura Precipitaţii Vânt Presiune Umiditate
    00:00 +9°C° 0 mm 2 m/s 729 mmHg 93%
    01:00 +9°C° 0 mm 2 m/s 729 mmHg 93%
    02:00 +8°C° 0 mm 2 m/s 729 mmHg 94%
    03:00 +8°C° 0 mm 2 m/s 729 mmHg 94%
    04:00 +7°C° 0 mm 2 m/s 729 mmHg 95%
    05:00 +8°C° 0 mm 2 m/s 729 mmHg 93%
    06:00 +8°C° 0 mm 2 m/s 729 mmHg 91%
    07:00 +8°C° 0 mm 2 m/s 729 mmHg 89%
    08:00 +10°C° 0 mm 2 m/s 729 mmHg 79%
    09:00 +11°C° 0 mm 3 m/s 729 mmHg 70%
    10:00 +12°C° 0 mm 3 m/s 730 mmHg 60%
    11:00 +13°C° 0 mm 3 m/s 729 mmHg 56%
    12:00 +14°C° 0 mm 4 m/s 729 mmHg 51%
    13:00 +15°C° 0 mm 4 m/s 729 mmHg 47%
    14:00 +15°C° 0 mm 4 m/s 728 mmHg 48%
    15:00 +14°C° 0 mm 4 m/s 728 mmHg 49%
    16:00 +14°C° 0 mm 4 m/s 728 mmHg 50%
    17:00 +12°C° 0 mm 3 m/s 728 mmHg 61%
    18:00 +10°C° 0 mm 2 m/s 728 mmHg 71%
    19:00 +8°C° 0 mm 2 m/s 728 mmHg 81%
    20:00 +8°C° 0 mm 1 m/s 728 mmHg 85%
    21:00 +8°C° 0 mm 1 m/s 728 mmHg 88%
    22:00 +7°C° 0 mm 1 m/s 729 mmHg 91%
    23:00 +7°C° 0 mm 1 m/s 729 mmHg 92%
    Arată mai mult